Retour au catalogue

EXPRESS 4A

ActifCommunicationsGEO
NORAD 27441·PAYLOAD·🇷🇺 Russia

Lancé Jun 10, 2002 depuis Baikonur Cosmodrome

Loading…

TLE

FraisSource: Space-Track

Époque: Sep 14, 2026, 11:58 UTC

1 27441U 02029A   26257.49865609  .00000030  00000-0  00000-0 0  9993
2 27441  11.8291  35.7160 0003334 112.0959 274.5666  0.99202167 88653

Suivez EXPRESS 4A en temps réel avec AllMySat

Download on the App Store